Location: Unspecified
(0.0000°N, 0.0000°E)
Time: 06:47:32
(UTC+00:00)

Vanguard 2 Rocket - Pass Details

Date: 22 October 2025
Orbit: 553 x 3288 km, 32.9° (Epoch: 15 November)

Event Time Altitude Azimuth Distance (km) Brightness Sun altitude
Rises 10:58:11 0° 280° (W) 6,003 10.9 73.9°
Reaches altitude 10° 11:03:57 10° 267° (W) 4,445 10.4 74.9°
Maximum altitude 11:11:54 22° 222° (SW) 2,779 9.8 76.2°
Drops below altitude 10° 11:17:26 10° 173° (S) 2,949 9.9 76.9°
Sets 11:20:21 0° 156° (SSE) 3,576 10.1 77.3°
